Flag Weather past 2 weeks in Bern, Bern, Switzerland

Now
46 °F

Fog.


Feels Like: 46 °F
Forecast: 37 / 57 °F
Wind: 1 mph from North

Location: Bern / Belp

Current Time: Nov 25, 2014 at 10:28:09 PM

Latest Report: Nov 25, 2014 at 9:50 PM


Visibility: 2 mi

Pressure: 30.07 "Hg

Humidity: 100%

Dew point: 46 °F

Location of BernLocation

Historic Weather in Bern — Graph

°F

Bern temperature yesterday

Maximum temperature yesterday: 63 °F (at 2:20 PM)
Minimum temperature yesterday: 43 °F (at 12:20 AM)
Average temperature yesterday: 49 °F

Past Weeks' High & Low Weather Summary

 TemperatureHumidityPressure
High63 °F (Nov 24, 2:20 PM)100% (Nov 10, 9:20 PM)30.24 "Hg (Nov 10, 9:20 PM)
Low30 °F (Nov 20, 12:20 AM)58% (Nov 19, 2:20 PM)29.56 "Hg (Nov 15, 4:50 PM)
Average43 °F94%29.92 "Hg
* Reported Nov 10 9:20 PM — Nov 25 9:20 PM, Bern, Weather by CustomWeather, © 2014

Note: Actual official high and low records may vary slightly from our data, if they occured in-between our weather recording intervals... More about our weather records

Advertising

Bern weather history for previous 24 hours

 ConditionsComfort  
Time TempWeatherWind HumidityBarometerVisibility
9:20 PM
Nov 25
46 °FFog.3 mph100%30.07 "Hg2 mi
8:50 PM46 °FFog.5 mph100%30.07 "Hg2 mi
8:20 PM46 °FFog.3 mph100%30.07 "Hg2 mi
7:50 PM46 °FFog.3 mph100%30.07 "Hg2 mi
7:20 PM46 °FFog.2 mph100%30.07 "Hg3 mi
6:50 PM46 °FFog.5 mph100%30.07 "Hg2 mi
6:20 PM46 °FFog.2 mph100%30.07 "Hg2 mi
5:50 PM46 °FFog.2 mph100%30.07 "Hg2 mi
5:20 PM48 °FFog.3 mph94%30.07 "Hg2 mi
4:50 PM48 °FFog.3 mph94%30.07 "Hg2 mi
4:20 PM48 °FFog.3 mph94%30.07 "Hg2 mi
3:50 PM48 °FFog.6 mph94%30.07 "Hg2 mi
3:20 PM48 °FFog.5 mph94%30.07 "Hg3 mi
2:50 PM48 °FFog.3 mph94%30.07 "Hg3 mi
2:20 PM48 °FFog.2 mph94%30.07 "Hg3 mi
1:50 PM48 °FFog.3 mph94%30.09 "Hg3 mi
1:20 PM48 °FFog.2 mph94%30.09 "Hg3 mi
12:50 PM48 °FFog.3 mph94%30.09 "Hg3 mi
12:20 PM48 °FFog.5 mph94%30.12 "Hg3 mi
11:50 AM48 °FFog.5 mph94%30.12 "Hg3 mi
11:20 AM48 °FFog.3 mph94%30.12 "Hg3 mi
10:50 AM48 °FLow clouds.3 mph94%30.12 "Hg3 mi
10:20 AM48 °FLow clouds.3 mph94%30.12 "Hg3 mi
9:50 AM48 °FLow clouds.3 mph94%30.12 "Hg3 mi
9:20 AM46 °FLow clouds.2 mph100%30.12 "Hg3 mi
8:50 AM46 °FLow clouds.1 mph100%30.12 "Hg3 mi
8:20 AM46 °FLow clouds.No wind100%30.12 "Hg2 mi
7:50 AM46 °FLow clouds.1 mph100%30.12 "Hg2 mi
7:20 AM46 °FPassing clouds.1 mph100%30.12 "Hg4 mi
6:50 AM46 °FPassing clouds.2 mph100%30.12 "Hg6 mi
6:20 AM46 °FPassing clouds.3 mph100%30.12 "HgN/A
5:50 AM46 °FPassing clouds.6 mph100%30.12 "HgN/A
5:20 AM46 °FPartly cloudy.6 mph100%30.12 "Hg5 mi
4:50 AM45 °FLow clouds.2 mph100%30.12 "Hg5 mi
4:20 AM45 °FPassing clouds.5 mph100%30.12 "Hg4 mi
3:50 AM45 °FOvercast.3 mph100%30.15 "Hg4 mi
3:20 AM43 °FFog.1 mph100%30.15 "Hg1 mi
2:50 AM45 °FPassing clouds.2 mph93%30.15 "Hg1 mi
2:20 AM45 °FFog.2 mph100%30.15 "Hg1 mi
1:50 AM45 °FFog.1 mph100%30.15 "Hg1 mi
1:20 AM45 °FFog.1 mph93%30.15 "Hg2 mi
12:50 AM45 °FFog.1 mph100%30.15 "Hg2 mi
12:20 AM45 °FFog.2 mph100%30.18 "Hg2 mi
11:50 PM
Nov 24
45 °FPartly cloudy.3 mph100%30.18 "Hg4 mi
11:20 PM46 °FOvercast.3 mph100%30.18 "Hg5 mi
10:50 PM46 °FPassing clouds.2 mph100%30.18 "Hg5 mi
10:20 PM48 °FClear.6 mph94%30.18 "Hg10 mi
Weather by CustomWeather, © 2014

See weather overviewHow to use our weather pages